Wetterdaten: aktuell Dienstag, 29.09.2020 15:48
Datum Zeit Temp. A. Feuchte A. Luftdruck Regen Wind Richtung Richtung Sonnenschein Regendauer Taupunkt Windchill
29.09.2020 15:48 13,6 C 90 % 1015,9 hPa 0,0 mm 0,0 km/h (0 Bft) NW 305 0 min 0 min 12,0 C 13,6 C
29.09.2020 15:43 13,5 C 89 % 1015,9 hPa 0,0 mm 0,0 km/h (0 Bft) N-NW 335 0 min 0 min 11,7 C 13,5 C
29.09.2020 15:38 13,5 C 89 % 1015,9 hPa 0,0 mm 1,5 km/h (1 Bft) W-NW 290 0 min 0 min 11,7 C 13,5 C
29.09.2020 15:33 14,0 C 86 % 1015,9 hPa 0,0 mm 0,0 km/h (0 Bft) W-NW 300 0 min 0 min 11,7 C 14,0 C
29.09.2020 15:28 14,1 C 84 % 1015,8 hPa 0,0 mm 0,0 km/h (0 Bft) W-NW 300 0 min 0 min 11,4 C 14,1 C
29.09.2020 15:23 14,3 C 85 % 1015,8 hPa 0,0 mm 0,0 km/h (0 Bft) SO 130 0 min 0 min 11,8 C 14,3 C
29.09.2020 15:18 14,1 C 86 % 1015,8 hPa 0,0 mm 0,0 km/h (0 Bft) SW 215 0 min 0 min 11,8 C 14,1 C
29.09.2020 15:13 13,9 C 85 % 1015,9 hPa 0,0 mm 3,0 km/h (1 Bft) S 180 0 min 0 min 11,4 C 13,9 C
29.09.2020 15:08 13,9 C 85 % 1015,9 hPa 0,0 mm 3,6 km/h (1 Bft) SO 145 0 min 0 min 11,4 C 13,9 C
29.09.2020 15:03 13,9 C 85 % 1015,9 hPa 0,0 mm 7,6 km/h (2 Bft) SO 140 0 min 0 min 11,4 C 13,9 C
29.09.2020 14:58 14,2 C 86 % 1015,8 hPa 0,0 mm 5,7 km/h (2 Bft) O-SO 115 3 min 0 min 11,9 C 14,2 C
29.09.2020 14:53 13,5 C 85 % 1015,9 hPa 0,0 mm 7,3 km/h (2 Bft) SO 140 0 min 0 min 11,0 C 13,5 C
29.09.2020 14:48 13,6 C 85 % 1015,9 hPa 0,0 mm 6,7 km/h (2 Bft) S-SO 150 0 min 0 min 11,1 C 13,6 C
29.09.2020 14:43 13,8 C 85 % 1015,9 hPa 0,0 mm 4,8 km/h (1 Bft) SO 145 0 min 0 min 11,3 C 13,8 C
29.09.2020 14:38 13,8 C 84 % 1015,9 hPa 0,0 mm 6,7 km/h (2 Bft) S 175 0 min 0 min 11,1 C 13,8 C
29.09.2020 14:33 13,8 C 85 % 1015,9 hPa 0,0 mm 8,5 km/h (2 Bft) O 90 4 min 0 min 11,3 C 13,8 C
29.09.2020 14:28 13,8 C 85 % 1015,9 hPa 0,0 mm 6,7 km/h (2 Bft) O 90 2 min 0 min 11,3 C 13,8 C
29.09.2020 14:23 13,9 C 85 % 1015,9 hPa 0,0 mm 6,1 km/h (2 Bft) NO 40 2 min 0 min 11,4 C 13,9 C
29.09.2020 14:18 14,0 C 85 % 1015,9 hPa 0,0 mm 4,5 km/h (1 Bft) S-SO 165 5 min 0 min 11,5 C 14,0 C
29.09.2020 14:13 14,0 C 84 % 1015,9 hPa 0,0 mm 11,2 km/h (2 Bft) SO 135 7 min 0 min 11,3 C 14,0 C
29.09.2020 14:08 14,4 C 84 % 1015,8 hPa 0,0 mm 3,9 km/h (1 Bft) S-SW 195 3 min 0 min 11,7 C 14,4 C
29.09.2020 14:03 14,4 C 85 % 1015,8 hPa 0,0 mm 3,9 km/h (1 Bft) W 265 5 min 0 min 11,9 C 14,4 C
29.09.2020 13:58 14,1 C 86 % 1015,8 hPa 0,0 mm 5,4 km/h (2 Bft) O-SO 110 6 min 0 min 11,8 C 14,1 C
29.09.2020 13:53 13,0 C 87 % 1016,0 hPa 0,0 mm 6,1 km/h (2 Bft) N-NW 335 4 min 0 min 10,9 C 13,0 C
29.09.2020 13:48 13,2 C 86 % 1017,1 hPa 0,0 mm 8,2 km/h (2 Bft) SO 130 0 min 0 min 10,9 C 13,2 C
29.09.2020 13:43 13,7 C 87 % 1017,0 hPa 0,0 mm 0,6 km/h (0 Bft) O-SO 120 1 min 0 min 11,6 C 13,7 C
29.09.2020 13:38 13,3 C 89 % 1017,0 hPa 0,0 mm 9,7 km/h (2 Bft) S-SO 150 5 min 0 min 11,5 C 13,3 C
29.09.2020 13:33 13,3 C 89 % 1017,0 hPa 0,0 mm 6,1 km/h (2 Bft) S-SO 160 5 min 0 min 11,5 C 13,3 C
29.09.2020 13:28 13,2 C 89 % 1017,1 hPa 0,0 mm 4,5 km/h (1 Bft) S-SO 165 5 min 0 min 11,4 C 13,2 C
29.09.2020 13:23 12,7 C 90 % 1017,2 hPa 0,0 mm 8,2 km/h (2 Bft) N-NW 330 5 min 0 min 11,1 C 12,7 C
29.09.2020 13:18 12,4 C 90 % 1017,2 hPa 0,0 mm 8,5 km/h (2 Bft) SO 130 3 min 0 min 10,8 C 12,4 C
29.09.2020 13:13 12,2 C 90 % 1017,3 hPa 0,0 mm 7,3 km/h (2 Bft) O-SO 120 0 min 0 min 10,6 C 12,2 C
29.09.2020 13:08 12,1 C 90 % 1017,3 hPa 0,0 mm 3,6 km/h (1 Bft) O-NO 75 0 min 0 min 10,5 C 12,1 C
29.09.2020 13:03 12,0 C 90 % 1016,2 hPa 0,0 mm 8,5 km/h (2 Bft) S 185 0 min 0 min 10,4 C 12,0 C
29.09.2020 12:58 12,3 C 90 % 1016,2 hPa 0,0 mm 10,0 km/h (2 Bft) S 180 0 min 0 min 10,7 C 12,3 C
29.09.2020 12:53 12,8 C 90 % 1016,1 hPa 0,0 mm 4,2 km/h (1 Bft) S 170 4 min 0 min 11,2 C 12,8 C
29.09.2020 12:48 12,4 C 90 % 1017,2 hPa 0,0 mm 9,7 km/h (2 Bft) SO 130 5 min 0 min 10,8 C 12,4 C
29.09.2020 12:43 12,2 C 91 % 1017,3 hPa 0,0 mm 0,3 km/h (0 Bft) S-SO 150 0 min 0 min 10,8 C 12,2 C
29.09.2020 12:38 11,8 C 91 % 1017,3 hPa 0,0 mm 7,9 km/h (2 Bft) S-SO 165 0 min 0 min 10,4 C 11,8 C
29.09.2020 12:33 11,9 C 90 % 1016,3 hPa 0,0 mm 6,7 km/h (2 Bft) SO 145 5 min 0 min 10,3 C 11,9 C
29.09.2020 12:28 11,9 C 90 % 1016,3 hPa 0,0 mm 3,9 km/h (1 Bft) O-SO 110 0 min 0 min 10,3 C 11,9 C
29.09.2020 12:23 11,7 C 90 % 1016,3 hPa 0,0 mm 7,9 km/h (2 Bft) S-SO 165 0 min 0 min 10,1 C 11,7 C
29.09.2020 12:18 11,9 C 89 % 1017,3 hPa 0,0 mm 7,3 km/h (2 Bft) NW 325 0 min 0 min 10,1 C 11,9 C
29.09.2020 12:13 12,1 C 89 % 1017,3 hPa 0,0 mm 3,6 km/h (1 Bft) W 265 1 min 0 min 10,3 C 12,1 C
29.09.2020 12:08 12,1 C 90 % 1017,3 hPa 0,0 mm 4,2 km/h (1 Bft) O-NO 65 5 min 0 min 10,5 C 12,1 C
29.09.2020 12:03 11,8 C 90 % 1017,3 hPa 0,0 mm 8,8 km/h (2 Bft) O-SO 105 5 min 0 min 10,2 C 11,8 C
29.09.2020 11:58 11,8 C 91 % 1017,3 hPa 0,0 mm 6,4 km/h (2 Bft) SO 140 3 min 0 min 10,4 C 11,8 C
29.09.2020 11:53 11,5 C 91 % 1017,4 hPa 0,0 mm 6,1 km/h (2 Bft) N 10 0 min 0 min 10,1 C 11,5 C
29.09.2020 11:48 11,4 C 91 % 1016,4 hPa 0,0 mm 6,7 km/h (2 Bft) S-SO 155 0 min 0 min 10,0 C 11,4 C
_ Min-Zeit 03:23 14:08 16:38 - 16:03 - - - - 03:23 03:23
Minimum _ 7,8 C 84 % 1009,2 hPa - 0,0 km/h (0 Bft) - - - - 7,0 C 7,8 C
_ Max-Zeit 14:03 06:08 10:08 16:03 14:13 - - 14:13 16:03 15:48 14:03
Maximum _ 14,4 C 97 % 1017,7 hPa 0,0 mm 11,2 km/h
SO (2 Bft)
- - 7 min 0 min 12,0 C 14,4 C
Durchschnitt _ 9,6 C 93 % 1014,5 hPa #0,0 mm 1,5 km/h (1 Bft) SO - #1:57 h #0 min. 8,4 C 9,6 C